STARLINK-1273, 45367

Orbit data source: Space-Track

STARLINK-1273, 45367 is a payload satellite owned by SpaceX/Seattle (US) in LEO that was launched on Wed, 18 Mar 2020 UTC via an FALCON 9 launch vehicle from the Air Force Eastern Test Range (AFETR). Payload-class satellites include a variety of spacecraft equipped with specific instruments for various scientific and technological missions. These include communications satellites like Starlink; space stations such as the ISS; scientific satellites like the Hubble; Earth observation satellites from companies like Planet Labs, Umbra, and HawkEye 360; GPS; miniature CubeSats for education and research; and military/defense satellites.

Loading next visibility...
Identifier
45367, 2020-019H
Orbit
LEO
Country
Flag of USUS
Related business
Manufacturer
SpaceX/Seattle
Mission
Partially operational Commercial Communications
Bus & Motor
STARLINK, Unknown motor
Mass
260 kg wet, ~248 kg dry
Launch date (UTC)
2020-03-18 (7 years ago)
Launch vehicle
FALCON 9
Launch site
Air Force Eastern Test Range (AFETR)
Object type
Payload
Rocket body
Debris
Shape & HBR
Box + 1 Pan, 10.1 m
Radar Cross Section
13.562 m², Large (>1 m²)

Expand to show TLE details & history
Last TLE update: 18 hours ago

TLE from 18 hours ago
0 STARLINK-1273
1 45367U 20019H   26267.00488318  .00059675  00000-0  49959-3 0  9993
2 45367  53.0389 271.4879 0003098  49.9794 310.1494 15.69424590360810
Epoch: 2026-09-24T00:07Z
TLE epoch observation values (Epoch: 2026-09-24T00:07:01.906Z)
Latitude
-0.00001°
Longitude
-93.11792°
Altitude
360.1 km
Speed
7.695 km/s
True Right ascension
18h 05m 57s
True Declination
0° 00' 00"
Sunlit
Object was in daylight at epoch
Visualization orbit readout
Latitude
Unknown
Longitude
Unknown
Altitude
Unknown
Speed
Unknown
Apparent Right ascension
Unknown
Apparent Declination
Unknown
Sunlit
N/A
Visualization observer readout
Local Sidereal Time
10:55:54
Azimuth
Unknown
Elevation
Unknown
Doppler factor
Unknown
Orbital elements
Apogee altitude
362.912 km
Perigee altitude
358.736 km
Semi-major axis
6,738.961 km
Eccentricity
0.00031
Inclination
53.0389°
RAAN
271.4879°
Arg. of periapsis
49.9794°
True anomaly
310.12226°
Mean anomaly
310.1494°
Eccentric anomaly
310.13583°
Mean motion
3.92332 °/min
Orbital period
91.76 mins
BSTAR
0.00049959
Loading maneuver chart data...
Computing Atmospheric mass density...
Loading historical data...
Loading historical data...
Loading historical data...
Loading historical data...
Loading historical data...
Loading historical data...
Loading historical data...

Documentation

Showing up to 5 results
|